Home   Weather   Kingston upon Hull   Past weeks

Flag for United Kingdom Past Weather in Kingston upon Hull, England, United Kingdom — Yesterday and Last 2 Weeks

Now
57 °F

Cool.


Feels Like: 57 °F
Forecast: 58 / 66 °F
Wind: 5 mph from Southwest

Location: Humberside

Current Time: Sep 1, 2016 at 4:50:47 AM

Latest Report: Sep 1, 2016 at 4:20 AM


Visibility: N/A

Pressure: 30.15 "Hg

Humidity: 88%

Dew Point: 54 °F

Location of Kingston upon HullLocation

Past Weather in Kingston upon Hull — Graph

°F

Kingston upon Hull Temperature Yesterday

Maximum temperature yesterday: 73 °F (at 2:20 PM)
Minimum temperature yesterday: 54 °F (at 5:20 AM)
Average temperature yesterday: 64 °F

High & Low Weather Summary for the Past Weeks

 TemperatureHumidityPressure
High82 °F (Aug 23, 3:50 PM)100% (Aug 17, 4:20 AM)30.24 "Hg (Aug 17, 4:20 AM)
Low48 °F (Aug 17, 3:20 AM)41% (Aug 26, 3:20 PM)29.50 "Hg (Aug 20, 3:20 PM)
Average64 °F82%29.98 "Hg
* Reported Aug 17 3:20 AM — Sep 1 3:20 AM, Kingston upon Hull, Weather by CustomWeather, © 2016

Note: Actual official high and low records may vary slightly from our data, if they occured in-between our weather recording intervals... More about our weather records

Advertising

Kingston upon Hull Weather History for the Previous 24 Hours

Scroll right to see more
 ConditionsComfort  
Time TempWeatherWind HumidityBarometerVisibility
3:20 AM
Thu, Sep 1
59 °FCool.3 mph88%30.15 "HgN/A
2:50 AM59 °FCool.5 mph88%30.15 "HgN/A
2:20 AM59 °FCool.7 mph88%30.15 "HgN/A
1:50 AM59 °FCool.5 mph88%30.15 "HgN/A
1:20 AM59 °FCool.5 mph88%30.15 "HgN/A
12:50 AM61 °FCool.6 mph83%30.15 "HgN/A
12:20 AM61 °FCool.5 mph83%30.12 "HgN/A
11:50 PM
Wed, Aug 31
59 °FCool.3 mph82%30.12 "HgN/A
11:20 PM61 °FCool.7 mph77%30.12 "HgN/A
10:50 PM61 °FCool.7 mph77%30.12 "HgN/A
10:20 PM61 °FCool.6 mph77%30.12 "HgN/A
9:50 PM61 °FCool.5 mph72%30.12 "HgN/A
9:20 PM63 °FClear.7 mph68%30.12 "Hg10 mi
8:50 PM63 °FClear.7 mph73%30.09 "Hg10 mi
8:20 PM64 °FSunny.9 mph68%30.09 "Hg10 mi
7:50 PM66 °FPassing clouds.7 mph64%30.09 "HgN/A
7:20 PM68 °FPassing clouds.8 mph56%30.07 "HgN/A
6:50 PM70 °FPassing clouds.13 mph53%30.07 "HgN/A
6:20 PM70 °FPassing clouds.10 mph53%30.07 "HgN/A
5:50 PM72 °FPassing clouds.16 mph47%30.07 "HgN/A
5:20 PM72 °FScattered clouds.18 mph47%30.07 "HgN/A
4:50 PM73 °FScattered clouds.16 mph44%30.04 "HgN/A
4:20 PM72 °FScattered clouds.15 mph53%30.04 "HgN/A
3:50 PM72 °FBroken clouds.13 mph61%30.04 "HgN/A
3:20 PM73 °FBroken clouds.14 mph61%30.04 "HgN/A
2:50 PM73 °FBroken clouds.17 mph61%30.04 "HgN/A
2:20 PM73 °FPartly sunny.18 mph61%30.04 "HgN/A
1:50 PM70 °FPartly sunny.17 mph69%30.04 "HgN/A
1:20 PM72 °FPartly sunny.18 mph65%30.04 "HgN/A
12:50 PM70 °FPartly sunny.17 mph69%30.04 "HgN/A
12:20 PM70 °FPartly sunny.15 mph69%30.04 "HgN/A
11:50 AM70 °FPassing clouds.17 mph64%30.04 "HgN/A
11:20 AM70 °FPassing clouds.20 mph64%30.04 "HgN/A
10:50 AM68 °FPassing clouds.17 mph69%30.04 "HgN/A
10:20 AM66 °FPassing clouds.16 mph73%30.04 "HgN/A
9:50 AM66 °FSunny.16 mph73%30.04 "Hg10 mi
9:20 AM63 °FSunny.14 mph83%30.04 "Hg10 mi
8:50 AM61 °FSunny.10 mph88%30.04 "Hg10 mi
8:20 AM61 °FSunny.14 mph88%30.04 "Hg10 mi
7:50 AM61 °FSunny.15 mph83%30.04 "Hg10 mi
7:20 AM59 °FSunny.10 mph88%30.04 "Hg10 mi
6:50 AM55 °FClear.10 mph94%30.04 "Hg10 mi
6:20 AM54 °FClear.8 mph94%30.07 "Hg10 mi
5:50 AM55 °FClear.8 mph94%30.07 "Hg10 mi
5:20 AM54 °FCool.9 mph94%30.07 "Hg4 mi
4:50 AM55 °FCool.8 mph94%30.07 "Hg4 mi
4:20 AM57 °FCool.8 mph88%30.07 "HgN/A
Weather by CustomWeather, © 2016

See weather overviewHow to use our weather pages